Time,TemperatureF,DewpointF,PressureIn,WindDirection,WindDirectionDegrees,WindSpeedMPH,WindSpeedGustMPH,Humidity,HourlyPrecipIn,Conditions,Clouds,dailyrainin,SoftwareType,DateUTC
2013-09-13 00:13:00,58.2,57.0,29.88,SE,139,4.0,15.0,95,0.00,,,0.00,weatherlink.com 1.10,2013-09-13 07:13:00,
2013-09-13 00:29:00,58.0,57.0,29.88,SSW,206,8.0,15.0,95,0.00,,,0.00,weatherlink.com 1.10,2013-09-13 07:29:00,
2013-09-13 00:44:00,58.0,57.0,29.87,SSE,162,8.0,16.0,95,0.00,,,0.00,weatherlink.com 1.10,2013-09-13 07:44:00,
2013-09-13 00:59:00,58.1,57.0,29.87,SSW,195,6.0,12.0,95,0.00,,,0.00,weatherlink.com 1.10,2013-09-13 07:59:00,
2013-09-13 01:14:00,57.8,56.0,29.88,SW,231,4.0,13.0,95,0.00,,,0.00,weatherlink.com 1.10,2013-09-13 08:14:00,
2013-09-13 01:29:00,57.8,56.0,29.88,SE,139,8.0,12.0,95,0.00,,,0.00,weatherlink.com 1.10,2013-09-13 08:29:00,
2013-09-13 01:44:00,57.6,56.0,29.88,SW,233,6.0,12.0,95,0.00,,,0.00,weatherlink.com 1.10,2013-09-13 08:44:00,
2013-09-13 01:59:00,57.3,56.0,29.88,SE,129,6.0,11.0,96,0.00,,,0.00,weatherlink.com 1.10,2013-09-13 08:59:00,
2013-09-13 02:14:00,57.2,56.0,29.88,SE,142,11.0,14.0,96,0.00,,,0.00,weatherlink.com 1.10,2013-09-13 09:14:00,
2013-09-13 02:29:00,57.3,56.0,29.88,SSE,162,9.0,17.0,96,0.00,,,0.00,weatherlink.com 1.10,2013-09-13 09:29:00,
2013-09-13 02:44:00,57.2,56.0,29.88,SE,136,6.0,14.0,96,0.00,,,0.00,weatherlink.com 1.10,2013-09-13 09:44:00,
2013-09-13 02:59:00,57.2,56.0,29.88,SSW,201,5.0,10.0,96,0.00,,,0.00,weatherlink.com 1.10,2013-09-13 09:59:00,
2013-09-13 03:14:00,57.3,56.0,29.87,SSE,167,3.0,11.0,96,0.00,,,0.00,weatherlink.com 1.10,2013-09-13 10:14:00,
2013-09-13 03:29:00,57.3,56.0,29.87,SSW,198,6.0,9.0,96,0.00,,,0.00,weatherlink.com 1.10,2013-09-13 10:29:00,
2013-09-13 03:44:00,57.4,56.0,29.87,SSE,148,8.0,10.0,95,0.00,,,0.00,weatherlink.com 1.10,2013-09-13 10:44:00,
2013-09-13 03:59:00,57.1,56.0,29.87,SW,222,4.0,11.0,95,0.00,,,0.00,weatherlink.com 1.10,2013-09-13 10:59:00,
2013-09-13 04:14:00,57.2,56.0,29.87,SSE,148,3.0,10.0,95,0.00,,,0.00,weatherlink.com 1.10,2013-09-13 11:14:00,
2013-09-13 04:30:00,57.2,56.0,29.87,SE,145,7.0,9.0,95,0.00,,,0.00,weatherlink.com 1.10,2013-09-13 11:30:00,
2013-09-13 04:44:00,56.9,56.0,29.87,SE,135,4.0,13.0,95,0.00,,,0.00,weatherlink.com 1.10,2013-09-13 11:44:00,
2013-09-13 04:59:00,56.9,56.0,29.87,SSW,195,4.0,10.0,95,0.00,,,0.00,weatherlink.com 1.10,2013-09-13 11:59:00,
2013-09-13 05:14:00,56.9,56.0,29.86,SSE,156,7.0,9.0,95,0.00,,,0.00,weatherlink.com 1.10,2013-09-13 12:14:00,
2013-09-13 05:29:00,56.9,56.0,29.86,South,170,4.0,10.0,95,0.00,,,0.00,weatherlink.com 1.10,2013-09-13 12:29:00,
2013-09-13 05:44:00,57.0,56.0,29.86,SSW,201,2.0,9.0,95,0.00,,,0.00,weatherlink.com 1.10,2013-09-13 12:44:00,
2013-09-13 05:59:00,57.1,56.0,29.87,SSE,152,6.0,10.0,95,0.00,,,0.00,weatherlink.com 1.10,2013-09-13 12:59:00,
2013-09-13 06:14:00,57.2,56.0,29.87,SSE,152,4.0,8.0,95,0.00,,,0.00,weatherlink.com 1.10,2013-09-13 13:14:00,
2013-09-13 06:29:00,57.3,56.0,29.86,SW,219,5.0,10.0,95,0.00,,,0.00,weatherlink.com 1.10,2013-09-13 13:29:00,
2013-09-13 06:44:00,57.2,56.0,29.87,SSE,165,5.0,12.0,95,0.00,,,0.00,weatherlink.com 1.10,2013-09-13 13:44:00,
2013-09-13 06:59:00,57.5,56.0,29.87,SSW,211,3.0,12.0,95,0.00,,,0.00,weatherlink.com 1.10,2013-09-13 13:59:00,
2013-09-13 07:15:00,57.7,56.0,29.87,South,190,3.0,13.0,94,0.00,,,0.00,weatherlink.com 1.10,2013-09-13 14:15:00,
2013-09-13 07:29:00,57.8,56.0,29.87,SSW,206,6.0,13.0,94,0.00,,,0.00,weatherlink.com 1.10,2013-09-13 14:29:00,
2013-09-13 07:50:00,57.9,56.0,29.87,SW,214,5.0,11.0,94,0.00,,,0.00,weatherlink.com 1.10,2013-09-13 14:50:00,
2013-09-13 07:59:00,57.6,56.0,29.87,SSW,206,4.0,11.0,94,0.00,,,0.00,weatherlink.com 1.10,2013-09-13 14:59:00,
2013-09-13 08:14:00,57.4,56.0,29.87,SSE,159,8.0,13.0,94,0.00,,,0.00,weatherlink.com 1.10,2013-09-13 15:14:00,
2013-09-13 08:29:00,57.5,56.0,29.88,SSE,150,8.0,10.0,94,0.00,,,0.00,weatherlink.com 1.10,2013-09-13 15:29:00,
2013-09-13 08:44:00,57.6,56.0,29.88,SW,229,7.0,12.0,93,0.00,,,0.00,weatherlink.com 1.10,2013-09-13 15:44:00,
2013-09-13 08:59:00,57.6,56.0,29.88,SSE,166,9.0,12.0,93,0.00,,,0.00,weatherlink.com 1.10,2013-09-13 15:59:00,
2013-09-13 09:14:00,57.4,55.0,29.88,South,186,7.0,10.0,93,0.00,,,0.00,weatherlink.com 1.10,2013-09-13 16:14:00,
2013-09-13 09:29:00,57.4,55.0,29.88,South,184,5.0,10.0,93,0.00,,,0.00,weatherlink.com 1.10,2013-09-13 16:29:00,
2013-09-13 09:44:00,57.8,56.0,29.88,SW,233,7.0,11.0,93,0.00,,,0.00,weatherlink.com 1.10,2013-09-13 16:44:00,
2013-09-13 09:59:00,58.6,56.0,29.88,South,170,8.0,14.0,92,0.00,,,0.00,weatherlink.com 1.10,2013-09-13 16:59:00,
2013-09-13 10:14:00,59.2,56.0,29.88,SSW,212,6.0,12.0,89,0.00,,,0.00,weatherlink.com 1.10,2013-09-13 17:14:00,
2013-09-13 10:29:00,60.4,57.0,29.88,SSW,212,8.0,11.0,88,0.00,,,0.00,weatherlink.com 1.10,2013-09-13 17:29:00,
2013-09-13 10:45:00,60.9,57.0,29.87,SW,217,5.0,10.0,87,0.00,,,0.00,weatherlink.com 1.10,2013-09-13 17:45:00,
2013-09-13 11:00:00,62.0,58.0,29.87,SW,227,8.0,13.0,85,0.00,,,0.00,weatherlink.com 1.10,2013-09-13 18:00:00,
2013-09-13 11:15:00,62.9,58.0,29.86,SE,136,5.0,13.0,83,0.00,,,0.00,weatherlink.com 1.10,2013-09-13 18:15:00,
2013-09-13 11:30:00,63.3,58.0,29.86,WSW,245,4.0,13.0,82,0.00,,,0.00,weatherlink.com 1.10,2013-09-13 18:30:00,
2013-09-13 11:45:00,63.7,58.0,29.86,SW,225,6.0,12.0,81,0.00,,,0.00,weatherlink.com 1.10,2013-09-13 18:45:00,
2013-09-13 12:00:00,64.1,58.0,29.85,WSW,248,5.0,11.0,80,0.00,,,0.00,weatherlink.com 1.10,2013-09-13 19:00:00,
2013-09-13 12:15:00,65.6,59.0,29.84,SE,146,8.0,10.0,79,0.00,,,0.00,weatherlink.com 1.10,2013-09-13 19:15:00,
2013-09-13 12:30:00,66.6,59.0,29.84,SSE,162,6.0,14.0,76,0.00,,,0.00,weatherlink.com 1.10,2013-09-13 19:30:00,
2013-09-13 12:45:00,66.3,59.0,29.84,South,174,4.0,11.0,76,0.00,,,0.00,weatherlink.com 1.10,2013-09-13 19:45:00,
2013-09-13 13:00:00,65.9,59.0,29.83,SSW,195,5.0,10.0,77,0.00,,,0.00,weatherlink.com 1.10,2013-09-13 20:00:00,
2013-09-13 13:15:00,65.8,59.0,29.83,WSW,238,7.0,14.0,78,0.00,,,0.00,weatherlink.com 1.10,2013-09-13 20:15:00,
2013-09-13 13:30:00,66.2,59.0,29.82,SSW,195,5.0,12.0,78,0.00,,,0.00,weatherlink.com 1.10,2013-09-13 20:30:00,
2013-09-13 13:45:00,66.4,59.0,29.82,SSW,203,7.0,13.0,77,0.00,,,0.00,weatherlink.com 1.10,2013-09-13 20:45:00,
2013-09-13 14:00:00,66.3,60.0,29.81,SSE,158,11.0,14.0,79,0.00,,,0.00,weatherlink.com 1.10,2013-09-13 21:00:00,
2013-09-13 14:15:00,66.0,59.0,29.81,SSE,155,3.0,13.0,79,0.00,,,0.00,weatherlink.com 1.10,2013-09-13 21:15:00,
2013-09-13 14:30:00,66.0,59.0,29.80,SSW,205,10.0,14.0,78,0.00,,,0.00,weatherlink.com 1.10,2013-09-13 21:30:00,
2013-09-13 14:46:00,66.7,59.0,29.80,South,181,8.0,15.0,76,0.00,,,0.00,weatherlink.com 1.10,2013-09-13 21:46:00,
2013-09-13 15:00:00,66.2,59.0,29.79,WSW,242,16.0,16.0,78,0.00,,,0.00,weatherlink.com 1.10,2013-09-13 22:00:00,
2013-09-13 15:15:00,65.9,59.0,29.79,SE,143,11.0,17.0,78,0.00,,,0.00,weatherlink.com 1.10,2013-09-13 22:15:00,
2013-09-13 15:30:00,66.4,59.0,29.79,South,174,8.0,16.0,77,0.00,,,0.00,weatherlink.com 1.10,2013-09-13 22:30:00,
2013-09-13 15:45:00,66.1,59.0,29.78,WSW,249,6.0,16.0,77,0.00,,,0.00,weatherlink.com 1.10,2013-09-13 22:45:00,
2013-09-13 16:01:00,65.4,58.0,29.77,South,169,6.0,19.0,77,0.00,,,0.00,weatherlink.com 1.10,2013-09-13 23:01:00,
2013-09-13 16:15:00,66.2,59.0,29.77,SSE,155,13.0,19.0,77,0.00,,,0.00,weatherlink.com 1.10,2013-09-13 23:15:00,
2013-09-13 16:30:00,66.9,59.0,29.77,SE,131,6.0,16.0,76,0.00,,,0.00,weatherlink.com 1.10,2013-09-13 23:30:00,
2013-09-13 16:45:00,67.2,59.0,29.76,South,175,3.0,17.0,75,0.00,,,0.00,weatherlink.com 1.10,2013-09-13 23:45:00,
2013-09-13 17:00:00,66.8,59.0,29.76,SSE,167,9.0,14.0,75,0.00,,,0.00,weatherlink.com 1.10,2013-09-14 00:00:00,
2013-09-13 17:15:00,66.9,59.0,29.75,SW,228,6.0,16.0,75,0.00,,,0.00,weatherlink.com 1.10,2013-09-14 00:15:00,
2013-09-13 17:30:00,66.3,59.0,29.75,SE,125,8.0,16.0,76,0.00,,,0.00,weatherlink.com 1.10,2013-09-14 00:30:00,
2013-09-13 17:46:00,65.5,58.0,29.75,SSW,201,11.0,16.0,78,0.00,,,0.00,weatherlink.com 1.10,2013-09-14 00:46:00,
2013-09-13 18:00:00,64.5,58.0,29.75,SSW,197,9.0,15.0,80,0.00,,,0.00,weatherlink.com 1.10,2013-09-14 01:00:00,
2013-09-13 18:16:00,63.8,58.0,29.74,South,179,9.0,14.0,81,0.00,,,0.00,weatherlink.com 1.10,2013-09-14 01:16:00,
2013-09-13 18:31:00,63.2,58.0,29.74,SSE,159,8.0,16.0,82,0.00,,,0.00,weatherlink.com 1.10,2013-09-14 01:31:00,
2013-09-13 18:46:00,61.9,57.0,29.74,SSW,200,9.0,15.0,84,0.00,,,0.00,weatherlink.com 1.10,2013-09-14 01:46:00,
2013-09-13 19:01:00,61.3,57.0,29.75,SSW,210,14.0,14.0,86,0.00,,,0.00,weatherlink.com 1.10,2013-09-14 02:01:00,
2013-09-13 19:16:00,60.5,57.0,29.73,SE,131,10.0,19.0,87,0.00,,,0.00,weatherlink.com 1.10,2013-09-14 02:16:00,
2013-09-13 19:31:00,59.4,56.0,29.74,SSE,156,4.0,19.0,89,0.00,,,0.00,weatherlink.com 1.10,2013-09-14 02:31:00,
2013-09-13 19:46:00,59.0,56.0,29.74,South,173,6.0,17.0,90,0.00,,,0.00,weatherlink.com 1.10,2013-09-14 02:46:00,
2013-09-13 20:01:00,58.7,56.0,29.75,South,170,16.0,16.0,91,0.00,,,0.00,weatherlink.com 1.10,2013-09-14 03:01:00,
2013-09-13 20:16:00,58.4,56.0,29.75,South,184,9.0,18.0,91,0.00,,,0.00,weatherlink.com 1.10,2013-09-14 03:16:00,
2013-09-13 20:31:00,58.0,56.0,29.75,SSW,193,8.0,16.0,92,0.00,,,0.00,weatherlink.com 1.10,2013-09-14 03:31:00,
2013-09-13 20:46:00,57.6,55.0,29.75,SE,131,8.0,18.0,92,0.00,,,0.00,weatherlink.com 1.10,2013-09-14 03:46:00,
2013-09-13 21:01:00,57.6,56.0,29.76,SE,145,5.0,16.0,93,0.00,,,0.00,weatherlink.com 1.10,2013-09-14 04:01:00,
2013-09-13 21:16:00,57.9,56.0,29.76,South,176,12.0,16.0,92,0.00,,,0.00,weatherlink.com 1.10,2013-09-14 04:16:00,
2013-09-13 21:31:00,57.8,56.0,29.76,South,190,11.0,17.0,92,0.00,,,0.00,weatherlink.com 1.10,2013-09-14 04:31:00,
2013-09-13 21:46:00,57.6,55.0,29.77,SSE,155,4.0,18.0,92,0.00,,,0.00,weatherlink.com 1.10,2013-09-14 04:46:00,
2013-09-13 22:01:00,57.3,55.0,29.76,SSW,203,6.0,19.0,92,0.00,,,0.00,weatherlink.com 1.10,2013-09-14 05:01:00,
2013-09-13 22:16:00,57.1,55.0,29.76,South,180,8.0,14.0,93,0.00,,,0.00,weatherlink.com 1.10,2013-09-14 05:16:00,
2013-09-13 22:31:00,57.2,55.0,29.76,SSE,156,9.0,17.0,93,0.00,,,0.00,weatherlink.com 1.10,2013-09-14 05:31:00,
2013-09-13 22:46:00,56.9,55.0,29.77,SE,146,10.0,18.0,93,0.00,,,0.00,weatherlink.com 1.10,2013-09-14 05:46:00,
2013-09-13 23:01:00,56.7,55.0,29.77,SSE,165,13.0,20.0,93,0.00,,,0.00,weatherlink.com 1.10,2013-09-14 06:01:00,
2013-09-13 23:16:00,56.8,55.0,29.77,SE,139,13.0,17.0,93,0.00,,,0.00,weatherlink.com 1.10,2013-09-14 06:16:00,
2013-09-13 23:31:00,56.7,55.0,29.77,SSE,160,8.0,18.0,93,0.00,,,0.00,weatherlink.com 1.10,2013-09-14 06:31:00,
2013-09-13 23:46:00,56.7,55.0,29.77,SE,142,6.0,17.0,93,0.00,,,0.00,weatherlink.com 1.10,2013-09-14 06:46:00,